Regional Weather Roundup
Issued by NWS

Home | Current Version | Previous Version | Text Only | Print | Product List | Glossary Off
Versions: 1 2 3 4 5 6 7 8 9 10 11 12 13 14 15 16 17 18 19 20 21 22 23 24 25 26 27 28 29 30 31 32 33 34 35 36 37 38 39 40 41 42 43 44 45 46 47 48 49 50

000
ASUS43 KLMK 111510
RWRKY
KENTUCKY REGIONAL WEATHER ROUNDUP
NATIONAL WEATHER SERVICE LOUISVILLE KY
1100 AM EDT FRI JUL 11 2014

NOTE "FAIR" INDICATES FEW OR NO CLOUDS BELOW 12,000 FEET
WITH NO SIGNIFICANT WEATHER AND/OR OBSTRUCTIONS TO VISIBILITY.

KYZ001>023-026-027-061>063-070>075-111600-
WESTERN AND SOUTH CENTRAL KENTUCKY

CITY           SKY/WX    TMP DP  RH WIND       PRES   REMARKS
PADUCAH        SUNNY     83  67  58 SE5       30.17F
HENDERSON      SUNNY     75  64  69 CALM      30.18F
OWENSBORO      SUNNY     80  61  52 CALM      30.20S
HOPKINSVILLE   SUNNY     82  64  54 E1        30.19S
BOWLING GREEN  MOSUNNY   81  64  56 CALM      30.20S
GLASGOW        SUNNY     82  63  52 CALM      30.20S
$$

KYZ024-025-028>034-038-045-046-053-111600-
NORTH CENTRAL KENTUCKY

CITY           SKY/WX    TMP DP  RH WIND       PRES   REMARKS
LOUISVILLE/SDF MOSUNNY   82  61  48 CALM      30.20S
LOUISVILLE/LOU SUNNY     81  60  48 CALM      30.21S
FORT KNOX      SUNNY     76  64  67 NE2       30.20S
$$

KYZ035>037-039>044-047>052-055>060-089>105-111600-
NORTHEAST KENTUCKY

CITY           SKY/WX    TMP DP  RH WIND       PRES   REMARKS
LEXINGTON      SUNNY     81  62  52 CALM      30.22F
COVINGTON      MOSUNNY   79  58  48 SE5       30.22F
FRANKFORT      SUNNY     79  61  53 E3        30.21S
$$

KYZ054-064>069-076>088-106>120-111600-
SOUTHEAST KENTUCKY

CITY           SKY/WX    TMP DP  RH WIND       PRES   REMARKS
JACKSON        SUNNY     77  64  64 CALM      30.25R
LONDON         SUNNY     82  65  56 VRB3      30.24R
SOMERSET       SUNNY     81  61  50 E3        30.23S
MIDDLESBORO    SUNNY     75  65  70 CALM      30.24S
MONTICELLO     SUNNY     83  68  60 CALM      30.23S
$$




USA.gov is the U.S. government's official web portal to all federal, state and local government web resources and services.